TimeCST,TemperatureF,Dew PointF,Humidity,Sea Level PressureIn,VisibilityMPH,Wind Direction,Wind SpeedMPH,Gust SpeedMPH,PrecipitationIn,Events,Conditions,WindDirDegrees,DateUTC
12:15 AM,23.0,12.2,63,30.05,10.0,WNW,17.3,23.0,N/A,,Clear,300,2012-12-10 06:15:00
12:35 AM,23.0,12.2,63,30.05,10.0,WNW,12.7,20.7,N/A,,Clear,290,2012-12-10 06:35:00
12:55 AM,21.2,12.2,68,30.04,10.0,WNW,8.1,-,N/A,,Scattered Clouds,290,2012-12-10 06:55:00
1:15 AM,21.2,12.2,68,30.04,10.0,WNW,6.9,-,N/A,,Mostly Cloudy,290,2012-12-10 07:15:00
1:35 AM,21.2,12.2,68,30.02,10.0,WNW,10.4,17.3,N/A,,Overcast,290,2012-12-10 07:35:00
1:55 AM,23.0,12.2,63,30.02,10.0,WNW,11.5,17.3,N/A,,Overcast,290,2012-12-10 07:55:00
2:15 AM,21.2,12.2,68,30.03,10.0,WNW,11.5,-,N/A,,Overcast,290,2012-12-10 08:15:00
2:35 AM,21.2,14.0,74,30.03,10.0,WNW,9.2,-,N/A,,Overcast,290,2012-12-10 08:35:00
2:55 AM,21.2,12.2,68,30.02,10.0,WNW,12.7,17.3,N/A,,Overcast,300,2012-12-10 08:55:00
3:15 AM,21.2,14.0,74,30.01,10.0,WNW,6.9,-,N/A,,Overcast,300,2012-12-10 09:15:00
3:35 AM,21.2,12.2,68,30.02,10.0,WNW,11.5,16.1,N/A,,Overcast,300,2012-12-10 09:35:00
3:55 AM,21.2,12.2,68,30.02,10.0,WNW,12.7,17.3,N/A,,Overcast,290,2012-12-10 09:55:00
4:15 AM,21.2,12.2,68,30.03,10.0,WNW,10.4,18.4,N/A,,Overcast,300,2012-12-10 10:15:00
4:35 AM,21.2,12.2,68,30.03,10.0,WNW,10.4,17.3,N/A,,Overcast,300,2012-12-10 10:35:00
4:55 AM,21.2,12.2,68,30.03,10.0,WNW,8.1,-,N/A,,Overcast,290,2012-12-10 10:55:00
5:15 AM,21.2,12.2,68,30.03,10.0,WNW,13.8,-,N/A,,Overcast,300,2012-12-10 11:15:00
5:35 AM,21.2,12.2,68,30.04,10.0,WNW,9.2,17.3,N/A,,Overcast,300,2012-12-10 11:35:00
6:15 AM,21.2,14.0,74,30.05,10.0,WNW,8.1,-,N/A,,Overcast,290,2012-12-10 12:15:00
6:55 AM,21.2,14.0,74,30.06,10.0,WNW,11.5,-,N/A,,Overcast,290,2012-12-10 12:55:00
7:15 AM,21.2,12.2,68,30.06,10.0,WNW,11.5,-,N/A,,Overcast,290,2012-12-10 13:15:00
7:35 AM,21.2,12.2,68,30.08,10.0,WNW,9.2,-,N/A,,Overcast,290,2012-12-10 13:35:00
7:55 AM,21.2,12.2,68,30.08,10.0,West,6.9,-,N/A,,Overcast,280,2012-12-10 13:55:00
8:15 AM,23.0,12.2,63,30.08,10.0,WNW,11.5,16.1,N/A,,Overcast,290,2012-12-10 14:15:00
8:35 AM,23.0,12.2,63,30.08,10.0,WNW,10.4,-,N/A,,Overcast,290,2012-12-10 14:35:00
8:55 AM,23.0,12.2,63,30.08,10.0,West,8.1,-,N/A,,Overcast,280,2012-12-10 14:55:00
9:15 AM,23.0,14.0,68,30.07,10.0,WNW,8.1,-,N/A,,Overcast,300,2012-12-10 15:15:00
9:35 AM,24.8,14.0,64,30.08,10.0,NW,9.2,-,N/A,,Overcast,310,2012-12-10 15:35:00
9:55 AM,24.8,14.0,64,30.07,10.0,WNW,11.5,-,N/A,,Overcast,300,2012-12-10 15:55:00
10:35 AM,26.6,14.0,59,30.06,10.0,West,5.8,-,N/A,,Overcast,280,2012-12-10 16:35:00
10:55 AM,26.6,15.8,64,30.07,10.0,WNW,8.1,-,N/A,,Overcast,300,2012-12-10 16:55:00
11:15 AM,26.6,15.8,64,30.07,10.0,WNW,9.2,-,N/A,,Overcast,290,2012-12-10 17:15:00
12:15 PM,28.4,17.6,64,30.04,10.0,West,6.9,-,N/A,,Overcast,280,2012-12-10 18:15:00
12:35 PM,30.2,17.6,60,30.04,10.0,WNW,6.9,-,N/A,,Overcast,300,2012-12-10 18:35:00
12:55 PM,30.2,17.6,60,30.04,10.0,West,10.4,-,N/A,,Overcast,280,2012-12-10 18:55:00
1:15 PM,30.2,19.4,64,30.03,10.0,NNW,8.1,-,N/A,,Mostly Cloudy,340,2012-12-10 19:15:00
1:35 PM,30.2,19.4,64,30.03,10.0,West,9.2,-,N/A,,Mostly Cloudy,280,2012-12-10 19:35:00
1:55 PM,30.2,17.6,60,30.02,10.0,WNW,8.1,-,N/A,,Scattered Clouds,290,2012-12-10 19:55:00
2:35 PM,30.2,17.6,60,30.02,10.0,WNW,6.9,-,N/A,,Clear,300,2012-12-10 20:35:00
3:15 PM,30.2,17.6,60,30.02,10.0,WSW,4.6,-,N/A,,Clear,250,2012-12-10 21:15:00
3:35 PM,30.2,17.6,60,30.03,10.0,West,6.9,-,N/A,,Clear,280,2012-12-10 21:35:00
3:55 PM,30.2,17.6,60,30.02,10.0,WSW,4.6,-,N/A,,Clear,250,2012-12-10 21:55:00
4:15 PM,30.2,17.6,60,30.03,10.0,West,5.8,-,N/A,,Clear,260,2012-12-10 22:15:00
4:35 PM,28.4,17.6,64,30.03,10.0,WSW,5.8,-,N/A,,Clear,240,2012-12-10 22:35:00
4:55 PM,28.4,17.6,64,30.02,10.0,WSW,5.8,-,N/A,,Clear,240,2012-12-10 22:55:00
5:15 PM,26.6,17.6,69,30.02,10.0,WSW,5.8,-,N/A,,Clear,240,2012-12-10 23:15:00
5:35 PM,24.8,17.6,74,30.03,10.0,WSW,4.6,-,N/A,,Clear,240,2012-12-10 23:35:00
5:55 PM,24.8,15.8,69,30.03,10.0,SW,3.5,-,N/A,,Clear,230,2012-12-10 23:55:00
6:15 PM,24.8,15.8,69,30.03,10.0,SSW,5.8,-,N/A,,Clear,210,2012-12-11 00:15:00
6:35 PM,23.0,15.8,74,30.02,10.0,SSW,4.6,-,N/A,,Clear,210,2012-12-11 00:35:00
6:55 PM,23.0,15.8,74,30.03,10.0,SSW,4.6,-,N/A,,Clear,210,2012-12-11 00:55:00
7:15 PM,23.0,15.8,74,30.03,10.0,SSW,4.6,-,N/A,,Clear,200,2012-12-11 01:15:00
7:35 PM,23.0,15.8,74,30.03,10.0,South,4.6,-,N/A,,Clear,190,2012-12-11 01:35:00
7:55 PM,23.0,14.0,68,30.04,10.0,South,4.6,-,N/A,,Clear,180,2012-12-11 01:55:00
8:15 PM,21.2,14.0,74,30.05,10.0,SSW,4.6,-,N/A,,Clear,210,2012-12-11 02:15:00
8:35 PM,21.2,14.0,74,30.05,10.0,SSW,5.8,-,N/A,,Clear,200,2012-12-11 02:35:00
8:55 PM,21.2,14.0,74,30.04,10.0,South,4.6,-,N/A,,Clear,180,2012-12-11 02:55:00
9:15 PM,21.2,14.0,74,30.05,10.0,South,4.6,-,N/A,,Clear,170,2012-12-11 03:15:00
9:55 PM,19.4,14.0,80,30.05,10.0,South,4.6,-,N/A,,Clear,170,2012-12-11 03:55:00
10:15 PM,19.4,14.0,80,30.05,10.0,South,3.5,-,N/A,,Clear,180,2012-12-11 04:15:00
10:35 PM,19.4,14.0,80,30.05,10.0,South,5.8,-,N/A,,Clear,190,2012-12-11 04:35:00
10:55 PM,21.2,14.0,74,30.05,10.0,South,6.9,-,N/A,,Clear,180,2012-12-11 04:55:00
11:15 PM,21.2,14.0,74,30.05,10.0,South,5.8,-,N/A,,Clear,170,2012-12-11 05:15:00
11:35 PM,19.4,14.0,80,30.04,10.0,SSE,6.9,-,N/A,,Clear,160,2012-12-11 05:35:00
11:55 PM,19.4,14.0,80,30.04,10.0,South,6.9,-,N/A,,Clear,170,2012-12-11 05:55:00